Regional Weather Roundup
Issued by NWS

Home | Current Version | Previous Version | Graphics & Text | Print | Product List | Glossary On
Versions: 1 2 3 4 5 6 7 8 9 10 11 12 13 14 15 16 17 18 19 20 21 22 23 24 25 26 27 28 29 30 31 32 33 34 35 36 37 38 39 40 41 42 43 44 45 46 47 48 49 50
000
ASUS43 KBIS 241110
RWRND

NORTH DAKOTA REGIONAL WEATHER ROUNDUP
NATIONAL WEATHER SERVICE BISMARCK ND
600 AM CDT WED AUG 24 2016

NOTE: "FAIR" INDICATES FEW OR NO CLOUDS BELOW 12,000 FEET WITH NO
SIGNIFICANT WEATHER AND/OR OBSTRUCTIONS TO VISIBILITY.


NDZ001>003-009>011-017-241200-
NORTHWEST NORTH DAKOTA

CITY           SKY/WX    TMP DP  RH WIND       PRES   REMARKS
WILLISTON      MOCLDY    60  47  61 W18G28    29.95R
MINOT          CLEAR     57  49  74 SW13      29.89S
MINOT AFB      CLEAR     54  49  83 W9        29.88S
$$

NDZ018>021-031>035-040>046-241200-
SOUTHWEST NORTH DAKOTA

CITY           SKY/WX    TMP DP  RH WIND       PRES   REMARKS
BISMARCK       CLEAR     56  48  74 W9        29.98R
DICKINSON      CLEAR     53  47  79 W16       30.01R
GARRISON         N/A     55  49  80 W10       29.95R
HETTINGER ARPT CLEAR     48  44  86 W6        30.08R
$$

NDZ004>008-012>016-024-026-027-054-241200-
NORTHEAST NORTH DAKOTA

CITY           SKY/WX    TMP DP  RH WIND       PRES   REMARKS
GRAND FORKS    PTCLDY    58  52  80 SW8       29.81R
GRND FRKS AFB  CLEAR     54  51  89 W7        29.82R
DEVILS LAKE    CLEAR     58  51  78 W13       29.86R
$$

NDZ022-023-025-028>030-036>039-047>053-241200-
SOUTHEAST NORTH DAKOTA

CITY           SKY/WX    TMP DP  RH WIND       PRES   REMARKS
FARGO          CLEAR     56  50  80 W6        29.85R
JAMESTOWN      CLEAR     57  50  77 W13       29.90R
$$




USA.gov is the U.S. government's official web portal to all federal, state and local government web resources and services.